Vertical_Velocity
4 3 2 1 0 -0 -0 0 1 2 2 3 3 3 2 2 1 1 1 1 1 1 1 1 1 1 1 1 1 1 1 1 1 1 1 1 1 1 1 1 1 1 1 1 1 1 1 1 1 2 2 2 2 2 2 2 2 3 3 3 3 3 3 3 3 3 3 2 2
3 3 3 2 1 0 0 0 1 2 3 3 3 3 2 1 1 1 1 1 1 1 1 1 1 1 1 1 1 1 0 0 1 1 1 1 1 1 1 1 1 1 1 1 1 1 1 1 1 2 2 2 2 2 2 2 2 3 3 3 3 3 3 3 3 3 3 2 2
2 3 3 3 2 2 1 0 1 1 2 3 3 3 3 2 1 1 0 0 0 1 1 1 1 1 1 1 1 0 0 0 1 1 1 1 1 1 1 1 1 1 1 0 0 1 1 1 1 2 2 2 1 1 2 2 2 3 3 3 3 3 3 3 3 3 3 3 2
1 2 3 3 3 2 2 1 1 1 2 2 2 2 2 2 1 1 1 0 1 1 1 1 1 1 1 1 1 1 1 1 1 1 1 1 1 1 1 2 1 1 0 0 0 1 1 1 1 2 1 1 1 1 1 2 2 3 3 2 3 3 3 3 3 3 3 3 2
0 1 2 2 2 2 2 2 2 1 1 2 2 2 2 2 2 2 2 2 1 1 1 1 1 1 1 1 1 1 1 1 1 1 1 1 1 1 1 2 1 1 0 0 0 0 1 1 2 2 1 1 1 1 2 2 2 3 3 3 3 3 3 3 3 3 3 3 3
-0 0 1 2 2 2 2 2 2 2 2 2 2 2 2 2 2 2 2 1 1 0 1 1 1 1 1 2 1 1 1 1 1 1 1 1 1 1 2 2 1 1 1 0 0 0 1 1 2 2 2 1 2 2 2 2 3 3 3 3 3 3 3 3 3 3 3 3 3
-0 -0 1 1 2 2 2 1 2 2 2 2 2 2 1 1 2 2 1 0 1 1 1 1 1 1 1 1 2 1 1 1 1 1 1 1 1 1 1 2 2 1 1 0 1 1 1 2 2 2 2 2 2 2 2 2 2 2 3 3 3 3 3 3 3 3 3 3 3
0 0 0 1 2 2 2 1 1 2 2 2 2 1 1 1 1 1 1 1 1 1 0 0 0 0 1 1 1 1 1 1 1 1 1 1 1 1 1 2 2 1 1 1 1 1 1 2 2 2 2 1 2 1 1 1 2 2 2 3 3 3 3 3 3 3 3 3 3
1 1 1 1 1 2 2 1 1 1 2 2 2 1 1 1 1 2 2 2 1 0 0 0 -0 0 1 1 1 1 1 1 1 1 1 1 1 1 1 2 2 1 1 1 1 1 1 2 2 2 1 1 1 1 1 1 2 2 2 2 3 3 3 4 3 3 3 3 3
1 2 2 1 1 1 2 2 1 1 1 1 1 1 1 1 1 2 2 1 0 1 1 -0 -0 0 1 1 1 1 1 1 1 1 1 1 1 1 1 1 1 1 1 1 1 1 2 2 2 2 1 1 1 1 1 2 2 2 2 2 3 3 4 3 3 3 3 3 3
-0 1 2 2 1 1 1 2 2 1 1 1 1 1 1 1 1 1 1 1 2 1 0 -0 -0 0 1 1 1 1 1 1 1 1 1 1 1 1 1 1 1 1 1 1 2 2 2 2 2 1 1 1 2 2 2 2 2 2 2 2 3 3 3 3 3 3 3 3 3
-1 -1 1 3 2 2 1 1 2 2 1 1 1 1 1 1 1 1 1 2 1 0 -0 -1 -0 0 1 1 1 1 1 1 1 1 1 1 1 1 2 2 1 1 1 2 2 2 2 2 1 1 1 1 2 1 1 1 1 2 2 2 3 3 3 3 3 3 3 3 3
-1 -1 -0 1 3 2 2 1 1 1 1 1 1 1 1 1 1 1 1 1 0 -0 -0 -1 -0 0 1 1 2 2 2 2 1 1 1 2 2 2 2 2 1 1 1 2 2 2 2 1 1 1 1 1 1 1 1 1 1 1 1 2 2 3 3 3 3 3 3 4 3
-0 -1 -1 -1 2 3 3 2 2 1 1 2 1 1 1 1 1 1 1 0 -0 -0 -1 -1 -0 0 1 1 2 2 2 2 2 2 2 2 2 2 2 2 1 1 1 2 2 2 2 2 1 1 1 1 1 1 1 1 1 1 1 1 2 2 2 3 3 3 3 3 3
1 0 -1 -2 -0 2 3 3 2 2 2 2 1 1 1 1 1 1 0 0 -1 -1 -1 -0 -0 0 1 1 2 2 2 2 2 2 2 2 2 2 2 2 2 1 2 2 2 2 2 2 1 1 1 2 1 1 1 1 1 1 1 1 1 2 2 2 3 3 3 3 3
1 0 -0 -1 -1 0 2 4 3 3 2 2 2 2 2 1 1 1 1 0 -1 -1 -0 -0 -0 -0 0 1 2 2 2 2 2 2 2 2 2 2 2 2 2 2 2 2 2 2 2 2 1 1 1 2 2 1 1 1 1 1 1 1 2 2 2 2 3 3 3 3 3
0 0 0 0 -1 -1 0 3 4 4 3 3 2 2 2 2 1 1 1 -0 -1 -1 -1 -1 -1 -0 0 1 1 2 2 2 2 2 2 2 2 2 2 2 2 1 1 2 2 2 2 2 2 2 2 2 2 1 1 1 1 1 2 2 2 2 2 2 2 3 3 3 3
-1 -0 0 1 -0 -1 -1 1 3 4 4 4 3 2 2 2 2 1 1 0 -0 -1 -1 -1 -1 -0 0 1 1 2 2 3 2 2 2 2 2 2 2 2 2 1 1 1 1 2 2 2 2 2 2 2 2 2 2 2 2 2 2 2 2 2 2 2 2 2 3 3 3
-1 -1 0 1 -0 -1 -1 -1 2 4 5 4 4 3 3 2 2 2 2 1 0 -0 -0 -1 -1 -0 0 0 0 1 2 2 2 2 2 2 2 2 2 2 2 2 1 1 1 1 2 2 2 2 1 1 1 2 2 2 2 2 2 2 2 2 2 2 2 3 3 3 3
-1 -1 -0 -0 -0 -0 -1 -1 0 3 4 5 5 4 4 3 2 2 2 1 1 0 -0 -0 -0 -0 0 0 1 1 2 2 2 3 2 2 2 2 2 2 2 2 1 1 1 2 2 3 2 2 1 1 1 1 2 2 2 2 2 2 2 1 1 2 2 3 3 3 3
-1 -1 -1 -1 -0 -0 -1 -1 -1 1 3 5 5 5 5 4 3 3 2 1 1 1 0 0 -0 -0 0 0 1 1 1 1 2 2 2 2 2 2 2 2 2 2 1 1 1 2 2 3 2 2 1 1 1 1 1 1 2 2 2 2 2 1 1 1 2 2 3 3 3
-1 -1 -1 -0 -0 -1 -1 -1 -1 -0 2 4 5 5 5 5 4 3 2 2 1 1 1 0 -0 -0 0 0 0 0 0 1 2 2 2 2 2 2 2 2 2 2 2 1 1 2 2 3 2 2 2 1 1 1 1 1 2 2 2 2 2 1 1 1 2 2 2 3 3
-0 -0 -0 -0 -0 -0 -1 -1 -1 -1 0 3 5 5 6 6 5 5 4 3 2 1 1 0 -0 0 0 0 0 0 1 1 2 2 2 2 2 2 2 2 2 2 2 1 1 2 2 3 2 2 2 1 1 1 1 1 1 2 2 2 2 1 1 1 1 2 2 2 2
0 0 -0 -0 -0 -0 -0 -1 -1 -1 -0 1 3 5 6 6 6 6 5 4 3 2 1 0 0 0 0 1 1 1 1 1 1 2 2 2 2 2 2 2 2 2 1 1 1 2 2 2 2 2 2 1 1 1 1 1 1 1 2 2 2 2 1 1 1 2 2 2 2
0 0 0 0 0 -0 -0 -0 -1 -1 -1 -1 1 4 5 6 6 6 6 5 4 2 1 1 1 1 1 1 1 1 1 1 1 1 2 2 2 2 2 2 2 2 2 2 2 2 2 2 2 2 2 2 1 1 1 1 1 1 2 2 2 2 2 2 2 2 2 2 2
0 0 0 0 0 0 0 0 -1 -2 -2 -2 -0 2 4 5 6 7 7 6 4 3 2 1 1 1 1 1 1 1 1 1 1 1 2 2 2 2 2 2 2 2 2 2 2 2 2 2 2 2 2 2 1 1 1 1 1 1 2 2 2 2 2 2 2 2 2 2 2
0 0 0 -0 0 1 0 -1 -1 -2 -2 -2 -0 1 3 4 6 6 7 7 5 3 2 2 1 1 1 1 1 1 1 0 1 1 2 2 2 2 2 2 2 2 2 1 2 2 2 2 2 2 2 2 1 1 1 1 1 1 2 2 1 1 1 1 2 2 2 2 2
0 0 0 0 1 0 -0 -0 0 -0 -1 -2 -2 -1 1 4 5 6 7 8 6 4 3 2 2 1 1 1 1 1 0 0 1 1 2 2 2 2 2 1 2 1 1 2 2 2 2 2 2 2 2 2 1 1 1 1 1 1 1 1 1 1 1 2 2 2 2 2 2
0 0 1 1 1 -0 -0 1 1 -0 -1 -2 -3 -2 0 4 4 5 6 8 8 6 4 2 2 2 2 2 1 0 0 1 1 2 2 3 2 2 2 2 2 1 1 2 2 2 3 3 2 2 2 1 1 1 1 1 1 1 1 1 1 1 1 2 2 2 2 2 2
0 1 1 1 0 0 0 0 -0 -1 -1 -2 -2 -1 0 3 4 5 6 7 8 7 5 2 3 3 2 1 1 1 1 1 1 2 3 3 2 2 2 2 2 2 1 2 2 2 3 3 2 2 2 2 1 1 1 1 1 1 1 1 1 1 1 2 2 2 2 2 2
0 1 1 1 0 0 -0 -0 -0 -0 -0 -1 -1 -1 -0 1 4 4 5 6 7 7 6 4 4 3 2 1 1 1 1 1 2 2 3 2 2 1 1 1 2 2 2 2 2 3 3 3 3 2 2 2 2 1 1 1 1 1 1 0 1 1 2 1 1 1 2 2 2
0 1 1 1 0 -0 -0 -0 0 0 0 -0 -0 -1 -1 -0 1 3 4 4 6 8 8 7 5 4 3 2 1 1 1 1 2 2 2 2 2 2 2 2 2 2 2 2 3 3 3 3 3 2 2 2 2 2 1 1 1 0 0 0 1 1 1 1 1 1 2 2 2
0 1 1 1 0 -0 -0 -0 0 0 0 0 -0 -1 -1 -1 -0 2 4 5 6 8 9 8 6 5 4 2 2 1 1 1 1 2 2 2 2 2 2 2 2 2 2 2 3 3 3 3 2 2 2 2 2 2 1 1 0 0 0 0 1 2 2 1 1 2 2 2 2
0 1 1 1 0 -0 -0 -0 -0 0 0 0 -0 -1 -2 -2 0 2 4 4 5 7 8 8 6 5 3 2 1 1 0 0 1 1 2 2 3 3 2 2 2 2 2 2 3 3 2 2 2 2 2 2 2 2 2 1 1 0 0 1 2 2 2 1 2 2 2 2 2
0 1 1 1 0 -0 -0 -0 -0 0 0 0 -0 -1 -1 -1 -1 0 2 3 5 6 8 8 7 6 4 3 2 1 1 1 1 1 2 2 3 3 2 2 1 1 2 2 2 2 2 2 2 2 3 3 3 2 2 1 0 -0 0 2 2 2 2 2 2 2 2 1 1
-0 0 1 1 1 0 -0 -1 -1 -0 0 -0 -1 -1 -1 -1 -1 -1 0 2 4 6 8 9 9 8 6 4 3 2 1 1 0 1 1 2 3 3 2 1 1 1 2 2 2 2 2 2 2 3 3 3 3 2 1 0 -0 -0 1 3 3 2 2 2 2 2 2 1 1
-0 0 1 1 1 0 -0 -1 -1 -1 -0 -1 -1 -1 -1 -1 -1 -1 0 3 5 6 7 9 9 8 6 5 3 2 1 0 1 1 2 2 3 2 2 1 1 1 1 2 2 2 2 2 2 3 3 4 4 3 1 0 0 1 2 3 3 2 2 2 2 2 1 1 1
-1 -0 1 1 1 0 -0 -1 -1 -1 -1 -1 -1 -1 -1 -1 -1 -1 0 3 4 4 5 8 9 8 7 4 3 2 1 1 1 1 2 2 2 2 2 1 1 1 1 1 2 2 2 2 2 3 4 4 4 2 1 0 1 2 3 3 3 2 2 2 2 2 1 1 0
-1 -0 0 1 1 0 0 -0 -1 -1 -2 -2 -1 -1 -1 -0 -0 -0 -0 1 2 2 3 6 9 9 7 5 4 3 2 1 1 1 2 2 2 2 2 1 1 1 1 2 2 2 2 2 2 3 4 4 3 1 0 0 1 2 3 3 3 3 3 2 2 1 1 0 0
-1 -0 0 0 1 1 0 -0 -1 -1 -1 -1 -1 -1 -0 -0 -1 -1 -0 1 2 2 2 4 7 8 8 6 5 4 2 1 1 1 1 1 1 2 2 2 1 1 1 2 2 2 2 3 3 3 4 4 2 1 1 1 2 3 4 4 3 3 2 2 1 1 0 0 1
-1 -0 -0 0 1 1 0 0 -0 -1 -1 -1 -1 -1 -2 -1 -1 -0 1 2 3 2 2 2 5 7 8 7 6 4 3 2 2 1 1 1 1 2 2 2 2 2 2 2 2 2 3 3 3 3 3 3 2 1 1 2 3 4 4 4 3 2 2 2 1 0 0 0 1
Height
5590 5592 5594 5595 5597 5599 5601 5603 5605 5607 5608 5610 5612 5613 5615 5617 5618 5620 5621 5623 5624 5626 5627 5628 5630 5631 5633 5634 5635 5637 5638 5640 5641 5643 5645 5646 5647 5648 5650 5651 5653 5654 5655 5657 5658 5659 5661 5662 5663 5664 5666 5667 5669 5670 5672 5673 5675 5676 5678 5679 5680 5682 5683 5685 5686 5687 5688 5690 5691
5586 5588 5589 5591 5593 5595 5597 5599 5601 5603 5604 5606 5608 5609 5611 5613 5614 5616 5618 5619 5621 5622 5624 5625 5627 5628 5629 5631 5632 5634 5635 5637 5638 5640 5642 5643 5645 5646 5647 5649 5650 5652 5653 5654 5656 5657 5658 5660 5661 5663 5664 5665 5667 5668 5670 5671 5673 5674 5675 5677 5678 5680 5681 5683 5684 5685 5687 5688 5689
5581 5583 5585 5587 5589 5591 5593 5594 5596 5598 5600 5602 5603 5605 5607 5609 5610 5612 5614 5615 5617 5619 5620 5622 5623 5625 5626 5628 5629 5631 5633 5634 5636 5637 5639 5640 5642 5643 5645 5647 5648 5649 5651 5652 5653 5655 5656 5658 5659 5660 5662 5663 5665 5666 5668 5669 5670 5672 5673 5675 5676 5678 5679 5681 5682 5684 5685 5686 5688
5577 5579 5581 5583 5585 5587 5588 5590 5592 5594 5596 5598 5599 5601 5603 5605 5607 5608 5610 5612 5613 5615 5617 5618 5620 5622 5623 5625 5627 5628 5630 5631 5633 5635 5636 5638 5639 5641 5643 5644 5645 5647 5648 5650 5651 5653 5654 5656 5657 5658 5660 5661 5663 5664 5665 5667 5668 5670 5671 5673 5674 5676 5677 5679 5680 5682 5683 5685 5686
5573 5574 5576 5578 5580 5582 5584 5586 5588 5590 5592 5593 5595 5597 5599 5601 5603 5605 5607 5608 5610 5612 5613 5615 5617 5618 5620 5622 5623 5625 5627 5628 5630 5632 5633 5635 5637 5638 5640 5642 5643 5644 5646 5647 5649 5651 5652 5653 5655 5656 5658 5659 5661 5662 5663 5665 5666 5668 5669 5671 5673 5674 5675 5677 5678 5680 5682 5683 5684
5568 5570 5572 5574 5576 5578 5580 5582 5583 5585 5587 5589 5591 5593 5595 5597 5599 5601 5603 5605 5606 5608 5610 5612 5613 5615 5617 5619 5620 5622 5624 5626 5627 5629 5631 5633 5634 5636 5638 5639 5641 5642 5643 5645 5647 5648 5650 5652 5653 5654 5656 5657 5658 5660 5661 5663 5664 5666 5667 5669 5670 5672 5673 5675 5677 5678 5680 5681 5683
5563 5566 5568 5569 5572 5573 5575 5577 5579 5581 5583 5585 5587 5589 5591 5593 5595 5597 5599 5601 5603 5604 5606 5608 5610 5612 5613 5615 5617 5619 5621 5623 5624 5626 5628 5630 5631 5633 5635 5636 5638 5639 5641 5643 5644 5646 5648 5649 5651 5652 5653 5655 5656 5658 5659 5660 5662 5663 5665 5667 5668 5670 5672 5673 5675 5676 5678 5679 5681
5559 5561 5563 5565 5567 5569 5571 5573 5575 5577 5579 5581 5583 5585 5587 5589 5591 5593 5595 5597 5599 5601 5603 5604 5606 5608 5610 5612 5614 5616 5618 5620 5622 5623 5625 5627 5628 5630 5632 5634 5635 5637 5638 5640 5642 5644 5645 5647 5648 5650 5651 5653 5654 5656 5657 5658 5660 5662 5663 5665 5667 5668 5670 5671 5673 5674 5676 5678 5679
5555 5557 5559 5561 5563 5565 5567 5569 5571 5573 5574 5577 5578 5581 5583 5585 5587 5589 5591 5593 5595 5597 5599 5601 5603 5605 5607 5609 5611 5613 5615 5617 5619 5621 5622 5624 5626 5628 5629 5631 5633 5634 5636 5638 5640 5641 5643 5645 5646 5648 5649 5651 5652 5653 5655 5656 5658 5660 5661 5663 5665 5666 5668 5669 5671 5673 5674 5676 5677
5551 5553 5555 5557 5558 5560 5563 5564 5567 5568 5570 5572 5574 5577 5579 5581 5583 5585 5588 5589 5591 5593 5596 5597 5599 5602 5603 5606 5608 5610 5612 5614 5616 5618 5619 5621 5623 5625 5627 5628 5630 5632 5633 5635 5637 5639 5641 5642 5644 5645 5647 5648 5650 5652 5653 5654 5656 5658 5659 5661 5663 5665 5666 5668 5669 5671 5672 5674 5675
5546 5548 5550 5552 5554 5556 5558 5560 5562 5564 5566 5568 5570 5573 5575 5577 5579 5581 5583 5585 5588 5590 5592 5593 5596 5598 5600 5603 5604 5607 5609 5611 5613 5615 5617 5618 5620 5622 5624 5626 5627 5629 5631 5633 5635 5637 5638 5640 5641 5643 5645 5646 5648 5649 5651 5652 5654 5656 5657 5659 5661 5663 5664 5666 5667 5669 5670 5672 5673
5542 5544 5546 5548 5550 5552 5554 5556 5558 5560 5562 5564 5566 5568 5571 5573 5575 5577 5579 5582 5584 5586 5588 5590 5593 5595 5597 5599 5601 5603 5605 5608 5610 5612 5613 5615 5617 5619 5621 5623 5624 5626 5628 5630 5632 5634 5636 5638 5639 5641 5642 5644 5645 5647 5649 5650 5652 5653 5655 5657 5659 5661 5662 5664 5665 5667 5668 5670 5672
5537 5539 5541 5544 5546 5548 5550 5552 5554 5556 5558 5560 5562 5564 5567 5568 5571 5573 5576 5578 5580 5582 5584 5587 5589 5591 5593 5596 5598 5600 5602 5604 5606 5608 5610 5612 5614 5616 5618 5620 5622 5623 5626 5628 5629 5631 5633 5635 5637 5638 5640 5642 5643 5645 5647 5648 5650 5652 5653 5655 5657 5658 5660 5662 5663 5665 5667 5668 5670
5532 5534 5537 5539 5542 5544 5546 5548 5550 5552 5554 5556 5558 5560 5563 5564 5567 5569 5571 5574 5576 5578 5581 5583 5585 5588 5590 5592 5594 5597 5599 5601 5603 5605 5607 5609 5611 5613 5615 5617 5619 5621 5623 5625 5627 5629 5631 5633 5634 5636 5638 5639 5641 5643 5644 5646 5648 5649 5651 5653 5655 5657 5658 5660 5662 5663 5665 5666 5668
5527 5529 5532 5534 5537 5539 5542 5544 5546 5548 5550 5552 5554 5556 5558 5561 5563 5565 5567 5570 5572 5574 5577 5579 5582 5584 5586 5588 5591 5593 5595 5598 5600 5602 5604 5606 5608 5610 5612 5614 5616 5618 5620 5622 5624 5626 5628 5630 5632 5633 5635 5637 5639 5641 5642 5644 5645 5647 5649 5651 5653 5654 5656 5658 5659 5661 5663 5664 5666
5522 5524 5527 5530 5533 5535 5538 5540 5542 5544 5546 5548 5550 5552 5554 5557 5559 5561 5563 5566 5568 5571 5573 5575 5578 5580 5583 5585 5587 5590 5592 5594 5597 5599 5601 5603 5605 5607 5609 5611 5613 5615 5617 5619 5621 5623 5625 5627 5629 5631 5633 5634 5637 5638 5640 5642 5643 5645 5647 5649 5650 5652 5654 5656 5658 5659 5661 5663 5664
5517 5519 5522 5525 5528 5530 5533 5536 5538 5540 5542 5544 5546 5548 5550 5553 5555 5557 5559 5562 5564 5567 5569 5572 5574 5577 5579 5582 5584 5586 5589 5591 5593 5596 5598 5600 5602 5604 5606 5608 5610 5612 5614 5616 5618 5621 5623 5624 5626 5628 5630 5632 5634 5636 5638 5639 5641 5643 5645 5647 5648 5650 5652 5653 5655 5657 5659 5661 5662
5511 5514 5517 5520 5523 5526 5528 5531 5534 5536 5538 5540 5542 5544 5546 5548 5551 5553 5555 5558 5560 5563 5565 5568 5570 5573 5576 5578 5580 5583 5585 5588 5590 5592 5594 5597 5599 5601 5603 5605 5607 5609 5611 5613 5616 5618 5620 5622 5624 5626 5628 5629 5631 5633 5635 5637 5639 5641 5643 5644 5646 5648 5650 5652 5653 5655 5657 5658 5660
5506 5509 5512 5515 5518 5521 5524 5527 5529 5532 5534 5536 5538 5540 5543 5545 5547 5549 5552 5554 5556 5559 5561 5564 5567 5569 5572 5574 5577 5579 5582 5584 5587 5589 5591 5593 5596 5598 5600 5602 5604 5606 5608 5610 5613 5615 5617 5619 5621 5623 5625 5627 5629 5631 5633 5635 5637 5638 5640 5642 5644 5646 5648 5649 5651 5653 5655 5657 5658
5501 5504 5507 5509 5513 5516 5519 5522 5525 5528 5530 5532 5534 5537 5538 5541 5543 5545 5548 5550 5552 5555 5558 5560 5563 5566 5568 5571 5573 5576 5578 5581 5583 5586 5588 5590 5592 5594 5597 5599 5601 5603 5605 5608 5610 5612 5614 5617 5619 5621 5623 5625 5627 5629 5631 5633 5634 5636 5638 5640 5642 5643 5645 5647 5649 5651 5653 5654 5656
5496 5498 5501 5504 5508 5511 5514 5517 5520 5523 5526 5528 5530 5533 5535 5537 5539 5542 5544 5546 5548 5551 5554 5556 5559 5562 5565 5567 5570 5573 5575 5577 5580 5582 5584 5587 5589 5591 5593 5596 5598 5600 5602 5605 5607 5609 5612 5614 5616 5618 5620 5622 5624 5627 5628 5630 5632 5634 5636 5638 5640 5641 5643 5645 5647 5649 5651 5653 5654
5490 5493 5496 5499 5502 5505 5509 5512 5515 5518 5521 5524 5526 5528 5531 5533 5535 5538 5540 5542 5545 5547 5550 5553 5555 5558 5561 5564 5566 5569 5571 5574 5576 5579 5581 5583 5586 5588 5590 5593 5595 5597 5599 5602 5604 5607 5609 5611 5613 5615 5618 5620 5622 5624 5626 5628 5630 5632 5634 5636 5638 5639 5641 5643 5645 5647 5649 5650 5652
5485 5488 5491 5494 5497 5500 5503 5507 5510 5514 5517 5519 5522 5525 5527 5529 5532 5534 5536 5538 5541 5543 5546 5548 5551 5554 5557 5560 5563 5565 5568 5571 5573 5575 5578 5580 5583 5585 5587 5589 5592 5594 5596 5599 5601 5604 5606 5608 5611 5613 5615 5617 5620 5622 5624 5626 5628 5630 5632 5634 5635 5637 5639 5641 5643 5645 5647 5648 5650
5480 5483 5485 5488 5492 5495 5498 5502 5505 5509 5512 5515 5518 5520 5523 5525 5528 5530 5533 5535 5537 5539 5542 5545 5548 5550 5553 5556 5559 5562 5564 5567 5569 5572 5574 5577 5579 5582 5584 5586 5589 5591 5593 5596 5598 5601 5603 5606 5608 5610 5612 5614 5617 5619 5621 5623 5625 5628 5629 5632 5633 5635 5637 5639 5641 5643 5645 5646 5648
5474 5477 5480 5483 5486 5489 5493 5497 5500 5504 5507 5510 5513 5516 5519 5522 5524 5527 5529 5531 5533 5536 5538 5541 5544 5547 5549 5553 5555 5558 5561 5563 5566 5568 5571 5573 5576 5578 5581 5583 5586 5588 5590 5593 5595 5598 5601 5603 5605 5607 5609 5612 5614 5617 5619 5621 5623 5625 5627 5629 5631 5633 5635 5637 5639 5641 5643 5644 5646
5469 5472 5475 5478 5481 5484 5488 5491 5495 5498 5502 5505 5509 5512 5515 5518 5520 5523 5525 5528 5530 5532 5535 5537 5540 5543 5546 5549 5552 5554 5557 5560 5563 5565 5568 5570 5573 5575 5578 5580 5583 5585 5588 5590 5592 5595 5598 5600 5603 5605 5607 5609 5612 5614 5617 5618 5621 5623 5625 5627 5629 5631 5633 5635 5637 5639 5641 5642 5644
5464 5467 5469 5473 5476 5479 5483 5486 5490 5493 5497 5501 5504 5507 5510 5513 5516 5519 5522 5524 5526 5529 5531 5534 5536 5539 5542 5545 5548 5551 5553 5556 5559 5562 5564 5567 5570 5572 5575 5577 5579 5582 5584 5587 5589 5592 5595 5597 5600 5602 5604 5607 5609 5612 5614 5616 5618 5620 5623 5625 5627 5629 5631 5633 5635 5637 5638 5640 5642
5459 5462 5464 5467 5471 5474 5477 5481 5485 5488 5492 5496 5499 5503 5506 5509 5512 5515 5518 5521 5523 5525 5528 5530 5533 5536 5538 5541 5544 5547 5550 5553 5556 5558 5561 5563 5566 5569 5571 5574 5576 5579 5581 5584 5587 5589 5592 5594 5597 5599 5602 5604 5607 5609 5612 5614 5616 5618 5620 5623 5625 5627 5629 5631 5633 5635 5636 5638 5640
5454 5457 5459 5462 5465 5468 5472 5476 5479 5483 5487 5491 5495 5498 5502 5505 5508 5511 5514 5517 5520 5522 5524 5527 5529 5532 5535 5538 5540 5543 5546 5549 5552 5555 5558 5560 5563 5565 5568 5571 5573 5576 5578 5581 5583 5586 5589 5592 5594 5597 5599 5601 5604 5607 5609 5611 5614 5616 5618 5620 5622 5624 5627 5628 5630 5632 5634 5636 5638
5450 5452 5455 5458 5460 5463 5467 5470 5474 5478 5482 5486 5490 5493 5497 5500 5503 5507 5510 5513 5516 5518 5521 5523 5526 5529 5532 5534 5537 5540 5543 5546 5548 5551 5554 5557 5559 5562 5565 5568 5570 5573 5575 5578 5580 5583 5586 5588 5591 5594 5596 5599 5601 5604 5607 5609 5611 5613 5615 5618 5620 5622 5624 5626 5628 5630 5632 5634 5636
5446 5448 5450 5453 5456 5458 5462 5465 5469 5473 5477 5481 5485 5489 5493 5496 5499 5503 5506 5509 5512 5515 5518 5520 5523 5525 5528 5531 5533 5536 5539 5542 5545 5548 5550 5553 5556 5559 5562 5564 5567 5570 5572 5575 5578 5580 5583 5585 5588 5591 5593 5596 5599 5601 5604 5606 5609 5611 5613 5615 5618 5620 5622 5624 5626 5628 5630 5632 5634
5441 5443 5446 5448 5451 5454 5457 5460 5464 5468 5472 5476 5480 5484 5488 5491 5494 5498 5502 5505 5508 5512 5515 5517 5519 5522 5524 5527 5530 5533 5536 5538 5542 5544 5547 5550 5553 5555 5558 5561 5564 5566 5569 5572 5574 5577 5580 5582 5585 5588 5591 5593 5596 5598 5601 5604 5606 5608 5610 5613 5615 5618 5620 5622 5624 5626 5628 5630 5632
5437 5439 5442 5444 5447 5449 5452 5455 5459 5463 5466 5471 5475 5479 5483 5487 5490 5493 5498 5501 5505 5508 5511 5513 5516 5518 5521 5524 5527 5529 5532 5535 5538 5541 5543 5547 5549 5552 5555 5558 5560 5563 5566 5568 5571 5574 5577 5579 5582 5585 5588 5591 5593 5596 5598 5601 5603 5606 5608 5610 5613 5615 5617 5619 5622 5623 5626 5628 5629
5433 5435 5438 5440 5442 5445 5448 5450 5454 5457 5461 5465 5470 5474 5478 5482 5486 5489 5493 5497 5501 5504 5507 5510 5513 5515 5518 5520 5523 5526 5528 5531 5534 5537 5540 5543 5546 5549 5552 5554 5557 5560 5563 5565 5568 5571 5573 5576 5579 5582 5585 5588 5591 5593 5596 5598 5601 5603 5606 5608 5611 5613 5615 5617 5619 5621 5623 5625 5627
5430 5432 5434 5436 5438 5440 5443 5446 5449 5453 5456 5460 5464 5469 5473 5477 5481 5485 5488 5492 5496 5500 5504 5507 5509 5512 5514 5517 5520 5523 5525 5528 5531 5534 5537 5539 5543 5546 5548 5551 5554 5557 5559 5562 5565 5567 5570 5573 5576 5579 5582 5585 5588 5590 5593 5596 5598 5601 5603 5606 5608 5611 5613 5615 5617 5619 5621 5623 5625
5426 5428 5430 5432 5434 5436 5439 5441 5444 5448 5451 5455 5459 5464 5468 5473 5477 5480 5484 5488 5492 5496 5500 5503 5506 5508 5511 5514 5516 5519 5522 5524 5527 5530 5533 5536 5539 5542 5545 5548 5551 5553 5556 5559 5561 5564 5567 5570 5573 5576 5579 5582 5585 5588 5590 5593 5595 5598 5601 5603 5606 5608 5611 5613 5615 5617 5619 5621 5622
5423 5424 5426 5428 5430 5432 5434 5437 5440 5443 5447 5450 5455 5459 5463 5468 5472 5476 5479 5483 5488 5492 5496 5500 5503 5505 5508 5510 5513 5516 5518 5521 5524 5527 5530 5533 5536 5539 5542 5545 5548 5550 5553 5556 5558 5561 5564 5567 5570 5573 5576 5579 5582 5584 5587 5590 5593 5595 5598 5601 5603 5606 5608 5610 5613 5614 5616 5618 5620
5420 5421 5423 5425 5427 5428 5431 5433 5436 5439 5442 5446 5450 5454 5458 5463 5468 5471 5475 5479 5483 5487 5492 5496 5499 5502 5504 5507 5510 5512 5515 5518 5521 5524 5527 5530 5533 5536 5538 5542 5544 5547 5550 5552 5555 5558 5561 5564 5567 5570 5573 5576 5579 5582 5584 5587 5590 5593 5596 5599 5601 5603 5606 5608 5610 5612 5614 5616 5618
5417 5418 5420 5421 5423 5425 5427 5429 5432 5435 5438 5442 5445 5450 5454 5458 5463 5467 5471 5474 5478 5483 5488 5492 5496 5498 5501 5504 5507 5509 5512 5515 5517 5520 5523 5526 5529 5532 5535 5538 5541 5544 5547 5549 5552 5555 5558 5561 5564 5567 5570 5573 5576 5578 5581 5584 5588 5591 5593 5596 5599 5601 5603 5605 5608 5609 5611 5613 5615
5415 5416 5417 5418 5420 5422 5424 5426 5428 5431 5434 5438 5441 5445 5449 5454 5458 5463 5467 5470 5474 5478 5483 5488 5492 5495 5498 5501 5503 5506 5509 5512 5514 5517 5520 5523 5526 5529 5532 5535 5538 5541 5543 5546 5549 5552 5554 5558 5561 5564 5567 5570 5573 5575 5578 5582 5585 5588 5591 5594 5596 5598 5601 5603 5605 5607 5609 5611 5613
5412 5413 5414 5416 5417 5419 5421 5423 5425 5427 5430 5433 5437 5441 5445 5449 5454 5458 5463 5467 5470 5474 5478 5483 5488 5492 5495 5498 5500 5503 5506 5508 5511 5514 5517 5520 5523 5526 5529 5532 5534 5537 5540 5543 5546 5548 5552 5554 5558 5561 5564 5567 5569 5573 5576 5579 5582 5585 5588 5591 5593 5596 5598 5600 5602 5604 5606 5608 5611